Flag for Canada Weather past 2 weeks in Thunder Bay, Ontario, Canada

Now
57 °F

Fog.


Feels Like: 56 °F
Forecast: 50 / 62 °F
Wind: 6 mph from Northwest

Location: Thunder Bay

Current Time: Sep 20, 2014 at 6:11:04 AM

Latest Report: Sep 20, 2014 at 5:00 AM


Visibility: 3 mi

Pressure: 29.54 "Hg

Humidity: 100%

Dew point: 57 °F

Location of Thunder BayLocation

Historic Weather in Thunder Bay — Graph

°F

Thunder Bay temperature yesterday

Maximum temperature yesterday: 61 °F (at 3:00 PM)
Minimum temperature yesterday: 45 °F (at 12:00 AM)
Average temperature yesterday: 54 °F

Past Weeks' High & Low Weather Summary

 TemperatureHumidityPressure
High73 °F (Sep 8, 4:00 PM)100% (Sep 5, 11:00 PM)30.43 "Hg (Sep 5, 11:00 PM)
Low27 °F (Sep 18, 8:00 AM)40% (Sep 6, 4:00 PM)29.54 "Hg (Sep 20, 4:00 AM)
Average50 °F81%30.05 "Hg
* Reported Sep 5 5:00 AM — Sep 20 5:00 AM, Thunder Bay, Weather by CustomWeather, © 2014

Note: Actual official high and low records may vary slightly from our data, if they occured in-between our weather recording intervals... More about our weather records

Advertising

Thunder Bay weather history for previous 24 hours

 ConditionsComfort  
Time TempWeatherWind HumidityBarometerVisibility
5:00 AM
Sep 20
57 °FFog.6 mph100%29.54 "Hg3 mi
4:00 AM55 °FFog.6 mph94%29.54 "Hg4 mi
3:00 AM55 °FFog.No wind94%29.58 "Hg5 mi
2:49 AM55 °FFog.3 mph94%29.58 "Hg5 mi
2:00 AM52 °FSprinkles. Fog.No wind100%29.59 "Hg3 mi
1:00 AM54 °FFog.3 mph100%29.59 "Hg2 mi
12:00 AM59 °FPassing clouds.3 mph94%29.59 "Hg6 mi
11:00 PM
Sep 19
59 °FFog.3 mph94%29.59 "Hg8 mi
10:00 PM61 °FMostly cloudy.5 mph94%29.59 "Hg7 mi
9:00 PM61 °FSprinkles. Fog.8 mph94%29.59 "Hg5 mi
8:00 PM61 °FMore clouds than sun.8 mph94%29.59 "Hg15 mi
7:00 PM59 °FOvercast.6 mph94%29.60 "Hg15 mi
6:00 PM59 °FMostly cloudy.3 mph94%29.60 "Hg15 mi
5:00 PM57 °FSprinkles. Mostly cloudy.3 mph94%29.63 "Hg8 mi
4:00 PM57 °FSprinkles. Fog.8 mph94%29.66 "Hg2 mi
3:00 PM61 °FSprinkles. Cloudy.13 mph77%29.67 "Hg15 mi
2:00 PM59 °FSprinkles. Mostly cloudy.9 mph77%29.71 "Hg20 mi
1:00 PM57 °FCloudy.6 mph82%29.74 "Hg15 mi
12:00 PM59 °FMostly cloudy.5 mph82%29.78 "Hg15 mi
11:00 AM59 °FMostly cloudy.13 mph77%29.81 "Hg15 mi
10:00 AM57 °FMostly cloudy.6 mph82%29.83 "Hg15 mi
9:00 AM54 °FCloudy.12 mph88%29.83 "Hg15 mi
8:00 AM54 °FMostly cloudy.12 mph88%29.89 "Hg15 mi
7:00 AM52 °FOvercast.8 mph88%29.92 "Hg15 mi
6:00 AM48 °FOvercast.3 mph94%29.95 "Hg15 mi
Weather by CustomWeather, © 2014

See weather overviewHow to use our weather pages